Tacoma Narrows, WA
on Tuesday, February 19, 2013

Tuesday
Previous Day Next Day
Daily Summary
 ActualAverageRecord
Temperature
Mean Temperature °F °F  
Max Temperature 48°F 47°F 52°F (2004)
Min Temperature 34°F 36°F 26°F (2006)
Degree Days
Heating Degree Days 22    
Moisture
Dew Point 34°F   
Average Humidity 76    
Maximum Humidity 89    
Minimum Humidity 52    
Precipitation
Precipitation 0.01 in in in ()
Wind
Wind Speed 3 mph   
Max Wind Speed 9 mph   
Max Gust Speed mph   
Visibility 10 miles   
Events Rain   
Averages and records for this station are not official NWS values.
Key: T is trace of precipitation, MM is missing value
Source: NWS Daily Summary
Seasonal Weather Averages
Time(PST)TemperatureDew PointHumidity Pressure Visibility Wind DirectionWind SpeedGust SpeedPrecipitationEvents Conditions
12:53 AM 37.9°F 35.1°F 89% 29.75 in 10.0 miles NNW 3.5 mph - N/A   Overcast
1:53 AM 39.0°F 36.0°F 89% 29.75 in 10.0 miles Calm Calm - 0.01 in Rain Light Rain
2:53 AM 39.9°F 36.0°F 86% 29.75 in 10.0 miles Calm Calm - 0.00 in   Overcast
3:53 AM 39.0°F 36.0°F 89% 29.74 in 10.0 miles NNW 3.5 mph - N/A   Overcast
4:53 AM 39.0°F 35.1°F 86% 29.74 in 10.0 miles NE 4.6 mph - N/A   Overcast
5:53 AM 39.0°F 35.1°F 86% 29.75 in 10.0 miles NNW 9.2 mph - N/A   Overcast
6:53 AM 39.0°F 36.0°F 89% 29.77 in 10.0 miles Calm Calm - N/A   Overcast
7:53 AM 39.0°F 36.0°F 89% 29.78 in 10.0 miles Calm Calm - N/A   Overcast
8:53 AM 41.0°F 37.0°F 86% 29.81 in 10.0 miles NW 3.5 mph - N/A   Mostly Cloudy
10:53 AM 44.1°F 37.0°F 76% 29.83 in 10.0 miles North 6.9 mph - N/A   Mostly Cloudy
11:53 AM 46.0°F 35.1°F 66% 29.83 in 10.0 miles North 6.9 mph - N/A   Mostly Cloudy
12:53 PM 48.0°F 33.1°F 56% 29.84 in 10.0 miles NNE 9.2 mph - N/A   Mostly Cloudy
1:53 PM 48.9°F 32.0°F 52% 29.85 in 10.0 miles North 9.2 mph - N/A   Clear
2:53 PM 48.0°F 34.0°F 58% 29.85 in 10.0 miles North 8.1 mph - N/A   Scattered Clouds
4:53 PM 45.0°F 35.1°F 68% 29.88 in 10.0 miles North 4.6 mph - N/A   Scattered Clouds
5:53 PM 43.0°F 30.9°F 62% 29.90 in 10.0 miles North 4.6 mph - N/A   Scattered Clouds
6:53 PM 41.0°F 30.9°F 67% 29.92 in 10.0 miles NNW 4.6 mph - N/A   Scattered Clouds
7:53 PM 42.1°F 32.0°F 67% 29.94 in 10.0 miles NNE 5.8 mph - N/A   Clear
8:53 PM 41.0°F 32.0°F 70% 29.96 in 10.0 miles Calm Calm - N/A   Clear
9:53 PM 37.0°F 30.9°F 79% 29.98 in 10.0 miles Calm Calm - N/A   Clear
10:53 PM 37.9°F 30.9°F 76% 30.01 in 10.0 miles Calm Calm - N/A   Clear
11:53 PM 34.0°F 30.9°F 89% 30.02 in 10.0 miles Calm Calm - N/A   Clear
Moon Phase
Feb. 19 Feb. 25 Mar. 04 Mar. 11 Mar. 19
Sunrise:07:07 AM (PST) Moon Rise:12:04 PM (PST)2/19
Sunset:05:40 PM (PST) Moon Set:02:56 AM (PST)2/19

Copyright © 2014 The Weather Underground, Inc.